| time (UTC) | temp F | wind direction | speed knots | gust knots | rain 1hr in | rain 24hr in | rain mn in | humidity % | barometer mb |
| 20260906183530 | 70 | 232 | 1.7 | 5.2 | 0.00 | 0.15 | 0.14 | 72 | 1015.8 |
| 20260906183108 | 70 | 292 | 1.7 | 5.2 | 0.00 | 0.15 | 0.14 | 68 | 1015.9 |
| 20260906182529 | 70 | 65 | 1.7 | 5.2 | 0.00 | 0.15 | 0.14 | 70 | 1015.9 |
| 20260906182033 | 70 | 59 | 0.9 | 4.3 | 0.01 | 0.15 | 0.14 | 68 | 1016.0 |
| 20260906181557 | 69 | 94 | 0.9 | 4.3 | 0.01 | 0.15 | 0.14 | 75 | 1016.0 |
| 20260906181027 | 68 | 164 | 0.9 | 6.1 | 0.01 | 0.15 | 0.14 | 74 | 1016.0 |
| 20260906180531 | 68 | 319 | 1.7 | 6.1 | 0.01 | 0.15 | 0.14 | 78 | 1016.0 |
| 20260906180112 | 68 | 1 | 0.9 | 2.6 | 0.01 | 0.15 | 0.14 | 77 | 1016.0 |
| 20260906175531 | 68 | 309 | 0.9 | 3.5 | 0.01 | 0.15 | 0.14 | 79 | 1016.1 |
| 20260906175030 | 67 | 1 | 0.9 | 3.5 | 0.01 | 0.15 | 0.14 | 80 | 1016.1 |
| 20260906174543 | 67 | 321 | 0.9 | 5.2 | 0.01 | 0.15 | 0.14 | 82 | 1016.1 |
| 20260906174031 | 67 | 309 | 1.7 | 5.2 | 0.01 | 0.15 | 0.14 | 81 | 1016.3 |
| 20260906173530 | 67 | 268 | 1.7 | 3.5 | 0.01 | 0.15 | 0.14 | 81 | 1016.5 |
| 20260906173052 | 67 | 289 | 0.0 | 8.7 | 0.01 | 0.15 | 0.14 | 80 | 1016.5 |
| 20260906172530 | 68 | 263 | 1.7 | 8.7 | 0.01 | 0.15 | 0.14 | 76 | 1016.3 |
| 20260906172031 | 69 | 338 | 2.6 | 8.7 | 0.00 | 0.14 | 0.13 | 71 | 1016.4 |
| 20260906171551 | 70 | 274 | 0.9 | 4.3 | 0.00 | 0.14 | 0.13 | 71 | 1016.3 |
| 20260906171027 | 70 | 167 | 1.7 | 5.2 | 0.00 | 0.14 | 0.13 | 73 | 1016.1 |
| 20260906170527 | 69 | 297 | 1.7 | 6.1 | 0.00 | 0.14 | 0.13 | 75 | 1016.3 |
| 20260906170049 | 69 | 245 | 1.7 | 6.1 | 0.00 | 0.14 | 0.13 | 75 | 1016.2 |
| 20260906165530 | 69 | 304 | 1.7 | 4.3 | 0.00 | 0.14 | 0.13 | 75 | 1016.3 |
| 20260906165029 | 69 | 326 | 0.0 | 3.5 | 0.00 | 0.14 | 0.13 | 78 | 1016.5 |
| 20260906164545 | 69 | 110 | 0.9 | 10.4 | 0.00 | 0.14 | 0.13 | 76 | 1016.5 |
| 20260906164030 | 68 | 318 | 0.9 | 10.4 | 0.00 | 0.14 | 0.13 | 79 | 1016.7 |
| 20260906163532 | 67 | 321 | 0.0 | 2.6 | 0.00 | 0.14 | 0.13 | 79 | 1016.7 |
| 20260906163053 | 67 | 289 | 0.9 | 2.6 | 0.00 | 0.14 | 0.13 | 78 | 1016.7 |
| 20260906162529 | 67 | 349 | 0.0 | 2.6 | 0.00 | 0.14 | 0.13 | 76 | 1016.7 |
| 20260906162029 | 67 | 307 | 0.0 | 4.3 | 0.00 | 0.14 | 0.13 | 79 | 1016.7 |
| 20260906161558 | 66 | 4 | 1.7 | 4.3 | 0.00 | 0.14 | 0.13 | 80 | 1016.8 |
| 20260906161029 | 66 | 300 | 0.9 | 3.5 | 0.00 | 0.14 | 0.13 | 79 | 1016.8 |
| 20260906160531 | 66 | 295 | 0.9 | 3.5 | 0.00 | 0.14 | 0.13 | 78 | 1016.7 |
| 20260906160049 | 67 | 312 | 0.9 | 4.3 | 0.00 | 0.14 | 0.13 | 81 | 1016.7 |
| 20260906155531 | 66 | 262 | 1.7 | 4.3 | 0.00 | 0.14 | 0.13 | 81 | 1016.8 |
| 20260906155030 | 66 | 325 | 0.9 | 4.3 | 0.00 | 0.14 | 0.13 | 82 | 1016.8 |
| 20260906154545 | 65 | 0 | 0.9 | 3.5 | 0.00 | 0.14 | 0.13 | 84 | 1016.9 |
| 20260906154030 | 65 | 313 | 0.9 | 3.5 | 0.00 | 0.14 | 0.13 | 84 | 1017.0 |
| 20260906153529 | 65 | 0 | 0.0 | 3.5 | 0.00 | 0.14 | 0.13 | 83 | 1017.0 |
| 20260906153042 | 65 | 273 | 0.0 | 3.5 | 0.00 | 0.14 | 0.13 | 83 | 1017.0 |
| 20260906152531 | 65 | 281 | 0.9 | 2.6 | 0.00 | 0.14 | 0.13 | 85 | 1016.9 |
| 20260906152031 | 65 | 0 | 0.0 | 2.6 | 0.00 | 0.14 | 0.13 | 87 | 1017.1 |
| 20260906151550 | 65 | 285 | 0.0 | 1.7 | 0.00 | 0.14 | 0.13 | 84 | 1017.2 |
| 20260906151027 | 65 | 0 | 0.0 | 3.5 | 0.00 | 0.14 | 0.13 | 86 | 1017.2 |
| 20260906150531 | 64 | 0 | 0.0 | 3.5 | 0.00 | 0.14 | 0.13 | 86 | 1017.3 |
| 20260906150053 | 64 | 15 | 0.9 | 3.5 | 0.00 | 0.14 | 0.13 | 86 | 1017.2 |
| 20260906145529 | 64 | 335 | 0.9 | 4.3 | 0.00 | 0.15 | 0.13 | 84 | 1017.0 |
| 20260906145030 | 64 | 278 | 0.9 | 4.3 | 0.00 | 0.15 | 0.13 | 87 | 1017.1 |
| 20260906144602 | 64 | 104 | 0.0 | 4.3 | 0.00 | 0.15 | 0.13 | 87 | 1017.2 |
| 20260906144030 | 64 | 53 | 0.0 | 3.5 | 0.00 | 0.15 | 0.13 | 87 | 1017.2 |
| 20260906143527 | 63 | 0 | 0.0 | 3.5 | 0.00 | 0.15 | 0.13 | 88 | 1017.1 |
| 20260906143054 | 63 | 302 | 0.0 | 5.2 | 0.00 | 0.15 | 0.13 | 89 | 1017.1 |
| 20260906142530 | 63 | 0 | 0.9 | 5.2 | 0.00 | 0.15 | 0.13 | 90 | 1017.0 |
| 20260906142030 | 63 | 243 | 1.7 | 5.2 | 0.00 | 0.15 | 0.13 | 90 | 1017.2 |
| 20260906141551 | 62 | 335 | 0.9 | 5.2 | 0.00 | 0.15 | 0.13 | 90 | 1017.0 |
| 20260906141030 | 62 | 0 | 0.9 | 3.5 | 0.00 | 0.15 | 0.13 | 91 | 1017.0 |
| 20260906140534 | 62 | 261 | 0.0 | 2.6 | 0.00 | 0.15 | 0.13 | 92 | 1017.0 |
| 20260906140045 | 62 | 265 | 0.9 | 1.7 | 0.00 | 0.15 | 0.13 | 92 | 1016.9 |
| 20260906135532 | 62 | 297 | 0.0 | 1.7 | 0.00 | 0.15 | 0.13 | 93 | 1017.0 |
| 20260906135030 | 62 | 297 | 0.0 | 2.6 | 0.00 | 0.15 | 0.13 | 93 | 1017.1 |
| 20260906134556 | 62 | 179 | 0.0 | 2.6 | 0.00 | 0.15 | 0.13 | 95 | 1017.1 |
| 20260906134027 | 62 | 330 | 0.0 | 2.6 | 0.00 | 0.15 | 0.13 | 95 | 1017.0 |
| 20260906133530 | 61 | 297 | 0.0 | 2.6 | 0.00 | 0.15 | 0.13 | 95 | 1017.1 |
| 20260906133046 | 61 | 287 | 0.0 | 2.6 | 0.00 | 0.15 | 0.13 | 95 | 1017.1 |
| 20260906132530 | 61 | 316 | 0.9 | 2.6 | 0.01 | 0.15 | 0.13 | 95 | 1017.0 |
| 20260906132029 | 61 | 0 | 0.0 | 2.6 | 0.01 | 0.15 | 0.13 | 96 | 1017.0 |
| 20260906131543 | 61 | 295 | 0.0 | 2.6 | 0.02 | 0.15 | 0.13 | 97 | 1016.9 |
| 20260906131032 | 61 | 297 | 0.9 | 2.6 | 0.03 | 0.15 | 0.13 | 97 | 1016.9 |
| 20260906130529 | 60 | 0 | 0.0 | 2.6 | 0.03 | 0.15 | 0.13 | 97 | 1016.9 |
| 20260906130100 | 60 | 0 | 0.0 | 2.6 | 0.03 | 0.15 | 0.13 | 97 | 1016.8 |
| 20260906125527 | 60 | 256 | 0.9 | 1.7 | 0.04 | 0.15 | 0.13 | 97 | 1017.0 |
| 20260906125028 | 60 | 113 | 0.0 | 1.7 | 0.04 | 0.15 | 0.13 | 97 | 1017.0 |
| 20260906124550 | 60 | 0 | 0.0 | 2.6 | 0.05 | 0.15 | 0.13 | 97 | 1016.9 |
| 20260906124030 | 59 | 0 | 0.0 | 2.6 | 0.05 | 0.15 | 0.13 | 97 | 1016.9 |
| 20260906123528 | 59 | 0 | 0.0 | 3.5 | 0.06 | 0.15 | 0.13 | 97 | 1016.8 |
| 20260906123046 | 59 | 341 | 0.9 | 3.5 | 0.07 | 0.15 | 0.13 | 97 | 1016.8 |
| 20260906122531 | 59 | 291 | 0.0 | 2.6 | 0.06 | 0.14 | 0.12 | 97 | 1016.6 |
| 20260906122030 | 59 | 0 | 0.0 | 3.5 | 0.06 | 0.14 | 0.12 | 97 | 1016.6 |
| 20260906121545 | 59 | 0 | 0.0 | 3.5 | 0.05 | 0.13 | 0.11 | 97 | 1016.6 |
| 20260906121030 | 59 | 117 | 0.0 | 3.5 | 0.05 | 0.12 | 0.10 | 97 | 1016.5 |
| 20260906120528 | 59 | 293 | 0.0 | 0.9 | 0.06 | 0.12 | 0.10 | 97 | 1016.5 |
| 20260906120054 | 59 | 0 | 0.0 | 0.9 | 0.08 | 0.12 | 0.10 | 97 | 1016.4 |
| 20260906115530 | 59 | 0 | 0.0 | 1.7 | 0.08 | 0.11 | 0.09 | 97 | 1016.3 |
| 20260906115031 | 59 | 306 | 0.0 | 1.7 | 0.07 | 0.10 | 0.08 | 97 | 1016.4 |
| 20260906114557 | 59 | 0 | 0.0 | 1.7 | 0.07 | 0.10 | 0.08 | 97 | 1016.3 |
| 20260906114029 | 59 | 0 | 0.0 | 1.7 | 0.07 | 0.10 | 0.08 | 97 | 1016.3 |
| 20260906113529 | 59 | 335 | 0.0 | 2.6 | 0.06 | 0.09 | 0.07 | 97 | 1016.2 |
| 20260906113054 | 59 | 113 | 0.0 | 2.6 | 0.05 | 0.08 | 0.06 | 97 | 1016.1 |
| 20260906112529 | 59 | 314 | 0.0 | 1.7 | 0.05 | 0.08 | 0.06 | 97 | 1016.1 |
| 20260906112030 | 59 | 264 | 0.9 | 1.7 | 0.05 | 0.08 | 0.06 | 97 | 1016.0 |
| 20260906111545 | 59 | 254 | 0.0 | 1.7 | 0.05 | 0.08 | 0.06 | 97 | 1015.9 |
| 20260906111029 | 59 | 307 | 0.9 | 2.6 | 0.04 | 0.07 | 0.05 | 97 | 1016.0 |
| 20260906110527 | 59 | 281 | 0.9 | 2.6 | 0.03 | 0.06 | 0.04 | 97 | 1015.8 |
| 20260906110053 | 59 | 252 | 0.9 | 2.6 | 0.01 | 0.04 | 0.02 | 97 | 1015.6 |
| 20260906105527 | 59 | 315 | 0.0 | 2.6 | 0.00 | 0.03 | 0.01 | 97 | 1015.5 |
| 20260906105031 | 59 | 289 | 0.0 | 2.6 | 0.00 | 0.03 | 0.01 | 97 | 1015.6 |
| 20260906104549 | 59 | 13 | 0.0 | 2.6 | 0.00 | 0.03 | 0.01 | 97 | 1015.5 |
| 20260906104029 | 59 | 0 | 0.9 | 2.6 | 0.00 | 0.03 | 0.01 | 97 | 1015.4 |
| 20260906103528 | 59 | 296 | 0.9 | 2.6 | 0.00 | 0.03 | 0.01 | 96 | 1015.3 |
| 20260906103055 | 59 | 0 | 0.0 | 1.7 | 0.00 | 0.03 | 0.01 | 97 | 1015.1 |
| 20260906102528 | 59 | 0 | 0.0 | 1.7 | 0.00 | 0.03 | 0.01 | 97 | 1015.1 |
| 20260906102033 | 59 | 296 | 0.0 | 1.7 | 0.00 | 0.03 | 0.01 | 97 | 1015.0 |
| 20260906101553 | 59 | 0 | 0.0 | 1.7 | 0.00 | 0.03 | 0.01 | 97 | 1015.0 |
| 20260906101029 | 59 | 334 | 0.0 | 0.9 | 0.00 | 0.03 | 0.01 | 97 | 1015.0 |
| 20260906100528 | 59 | 0 | 0.0 | 0.0 | 0.00 | 0.03 | 0.01 | 97 | 1014.9 |
| 20260906100052 | 59 | 0 | 0.0 | 0.0 | 0.00 | 0.03 | 0.01 | 97 | 1014.9 |
| 20260906095529 | 59 | 0 | 0.0 | 0.0 | 0.00 | 0.03 | 0.01 | 97 | 1014.9 |
| 20260906095027 | 59 | 0 | 0.0 | 0.0 | 0.00 | 0.03 | 0.01 | 97 | 1014.8 |
| 20260906094548 | 59 | 0 | 0.0 | 0.0 | 0.00 | 0.03 | 0.01 | 97 | 1014.7 |
| 20260906094028 | 59 | 0 | 0.0 | 0.0 | 0.00 | 0.03 | 0.01 | 97 | 1014.8 |
| 20260906093528 | 59 | 0 | 0.0 | 0.0 | 0.00 | 0.03 | 0.01 | 97 | 1014.7 |
| 20260906093045 | 59 | 0 | 0.0 | 0.0 | 0.00 | 0.03 | 0.01 | 97 | 1014.7 |
| 20260906092531 | 59 | 0 | 0.0 | 0.0 | 0.00 | 0.03 | 0.01 | 97 | 1014.7 |
| 20260906092030 | 59 | 0 | 0.0 | 0.0 | 0.00 | 0.03 | 0.01 | 97 | 1014.6 |
| 20260906091551 | 59 | 0 | 0.0 | 0.9 | 0.00 | 0.03 | 0.01 | 97 | 1014.5 |
| 20260906091029 | 59 | 0 | 0.0 | 0.9 | 0.00 | 0.03 | 0.01 | 97 | 1014.5 |
| 20260906090526 | 59 | 0 | 0.0 | 0.0 | 0.00 | 0.03 | 0.01 | 97 | 1014.5 |
| 20260906090049 | 59 | 0 | 0.0 | 0.0 | 0.00 | 0.03 | 0.01 | 97 | 1014.4 |
| 20260906085531 | 59 | 0 | 0.0 | 0.0 | 0.00 | 0.03 | 0.01 | 97 | 1014.5 |
| 20260906085029 | 59 | 0 | 0.0 | 0.0 | 0.00 | 0.03 | 0.01 | 96 | 1014.6 |
| 20260906084554 | 59 | 0 | 0.0 | 0.9 | 0.00 | 0.03 | 0.01 | 97 | 1014.7 |
| 20260906084029 | 59 | 0 | 0.0 | 0.9 | 0.00 | 0.03 | 0.01 | 97 | 1014.7 |
| 20260906083531 | 59 | 0 | 0.0 | 0.9 | 0.00 | 0.03 | 0.01 | 97 | 1014.6 |
| 20260906083048 | 59 | 0 | 0.0 | 0.9 | 0.00 | 0.03 | 0.01 | 96 | 1014.5 |
| 20260906082531 | 59 | 0 | 0.0 | 0.9 | 0.00 | 0.03 | 0.01 | 96 | 1014.5 |
| 20260906082030 | 59 | 343 | 0.0 | 0.9 | 0.00 | 0.03 | 0.01 | 96 | 1014.4 |
| 20260906081550 | 59 | 0 | 0.0 | 0.0 | 0.00 | 0.03 | 0.01 | 96 | 1014.1 |
| 20260906081029 | 59 | 0 | 0.0 | 0.0 | 0.00 | 0.03 | 0.01 | 96 | 1014.5 |
| 20260906080529 | 59 | 0 | 0.0 | 0.9 | 0.00 | 0.03 | 0.01 | 96 | 1014.6 |
| 20260906080052 | 59 | 0 | 0.0 | 0.9 | 0.00 | 0.03 | 0.01 | 96 | 1014.6 |
| 20260906075529 | 59 | 299 | 0.0 | 0.9 | 0.00 | 0.03 | 0.01 | 96 | 1014.5 |
| 20260906075030 | 59 | 0 | 0.0 | 0.9 | 0.00 | 0.03 | 0.01 | 96 | 1014.4 |
| 20260906074604 | 59 | 0 | 0.0 | 0.0 | 0.00 | 0.03 | 0.01 | 96 | 1014.4 |
| 20260906074028 | 59 | 0 | 0.0 | 0.0 | 0.00 | 0.03 | 0.01 | 96 | 1014.4 |
| 20260906073530 | 59 | 0 | 0.0 | 0.9 | 0.00 | 0.03 | 0.01 | 96 | 1014.4 |
| 20260906073045 | 59 | 0 | 0.0 | 0.9 | 0.00 | 0.03 | 0.01 | 96 | 1014.5 |
| 20260906072529 | 59 | 0 | 0.0 | 0.9 | 0.00 | 0.03 | 0.01 | 96 | 1014.5 |
| 20260906072031 | 59 | 0 | 0.0 | 0.9 | 0.00 | 0.03 | 0.01 | 96 | 1014.5 |
| 20260906071544 | 59 | 0 | 0.0 | 0.9 | 0.00 | 0.03 | 0.01 | 96 | 1014.3 |
| 20260906071031 | 59 | 0 | 0.0 | 0.0 | 0.00 | 0.03 | 0.01 | 96 | 1014.5 |
| 20260906070531 | 59 | 0 | 0.0 | 0.0 | 0.00 | 0.03 | 0.01 | 96 | 1014.4 |
| 20260906070141 | 59 | 0 | 0.0 | 0.9 | 0.00 | 0.03 | 0.01 | 96 | 1014.5 |
| 20260906070052 | 59 | 0 | 0.0 | 0.9 | 0.00 | 0.03 | 0.01 | 96 | 1014.5 |
| 20260906065529 | 59 | 0 | 0.0 | 0.9 | 0.00 | 0.03 | 0.01 | 96 | 1014.5 |
| 20260906065031 | 59 | 0 | 0.0 | 0.9 | 0.00 | 0.03 | 0.01 | 96 | 1014.5 |
| 20260906064546 | 59 | 0 | 0.0 | 0.9 | 0.01 | 0.03 | 0.01 | 96 | 1014.4 |
| 20260906064029 | 59 | 0 | 0.0 | 0.9 | 0.01 | 0.03 | 0.01 | 96 | 1014.5 |
| 20260906063529 | 59 | 0 | 0.0 | 0.9 | 0.01 | 0.03 | 0.01 | 95 | 1014.4 |
| 20260906063046 | 59 | 0 | 0.0 | 0.9 | 0.01 | 0.03 | 0.01 | 95 | 1014.6 |
| 20260906062529 | 59 | 0 | 0.0 | 0.0 | 0.01 | 0.03 | 0.01 | 95 | 1014.5 |
| 20260906062032 | 59 | 0 | 0.0 | 0.0 | 0.01 | 0.03 | 0.01 | 95 | 1014.5 |
| 20260906061550 | 59 | 0 | 0.0 | 2.6 | 0.01 | 0.03 | 0.01 | 95 | 1014.7 |
| 20260906061029 | 59 | 0 | 0.0 | 2.6 | 0.01 | 0.03 | 0.01 | 95 | 1014.6 |
| 20260906060527 | 60 | 356 | 0.0 | 2.6 | 0.01 | 0.03 | 0.01 | 95 | 1014.7 |
| 20260906060052 | 60 | 0 | 0.0 | 0.0 | 0.01 | 0.03 | 0.01 | 95 | 1014.7 |
| 20260906055530 | 60 | 0 | 0.0 | 0.0 | 0.01 | 0.03 | 0.01 | 95 | 1014.6 |
| 20260906055027 | 60 | 0 | 0.0 | 0.0 | 0.00 | 0.02 | 0.00 | 95 | 1014.8 |
| 20260906054547 | 60 | 0 | 0.0 | 0.0 | 0.00 | 0.02 | 0.00 | 95 | 1014.7 |
| 20260906054030 | 60 | 0 | 0.0 | 0.0 | 0.00 | 0.02 | 0.00 | 95 | 1014.7 |
| 20260906053530 | 60 | 0 | 0.0 | 0.0 | 0.00 | 0.02 | 0.00 | 95 | 1014.8 |
| 20260906053054 | 60 | 0 | 0.0 | 0.0 | 0.00 | 0.02 | 0.00 | 95 | 1014.9 |
| 20260906052529 | 60 | 0 | 0.0 | 0.0 | 0.00 | 0.02 | 0.00 | 94 | 1014.6 |
| 20260906052030 | 60 | 0 | 0.0 | 0.0 | 0.00 | 0.02 | 0.00 | 94 | 1014.7 |
| 20260906051601 | 60 | 0 | 0.0 | 0.0 | 0.00 | 0.02 | 0.00 | 94 | 1014.7 |
| 20260906051029 | 60 | 0 | 0.0 | 0.0 | 0.00 | 0.02 | 0.00 | 93 | 1014.8 |
| 20260906050527 | 61 | 0 | 0.0 | 0.0 | 0.00 | 0.02 | 0.00 | 93 | 1014.7 |
| 20260906050055 | 61 | 0 | 0.0 | 0.0 | 0.00 | 0.02 | 0.00 | 93 | 1014.7 |
| 20260906045530 | 61 | 0 | 0.0 | 0.0 | 0.00 | 0.02 | 0.00 | 93 | 1014.7 |
| 20260906045043 | 61 | 0 | 0.0 | 0.0 | 0.00 | 0.02 | 0.00 | 92 | 1014.6 |
| 20260906044545 | 61 | 0 | 0.0 | 0.0 | 0.00 | 0.02 | 0.00 | 92 | 1014.6 |
| 20260906044031 | 61 | 0 | 0.0 | 0.0 | 0.00 | 0.02 | 0.00 | 93 | 1014.5 |
| 20260906043533 | 61 | 0 | 0.0 | 0.0 | 0.00 | 0.02 | 0.00 | 92 | 1014.4 |
| 20260906043041 | 61 | 0 | 0.0 | 0.0 | 0.00 | 0.02 | 0.00 | 93 | 1014.5 |
| 20260906042527 | 61 | 194 | 0.0 | 0.0 | 0.00 | 0.02 | 0.00 | 93 | 1014.5 |
| 20260906042029 | 61 | 193 | 0.0 | 1.7 | 0.00 | 0.02 | 0.00 | 93 | 1014.4 |
| 20260906041552 | 62 | 0 | 0.0 | 1.7 | 0.00 | 0.02 | 0.00 | 94 | 1014.4 |
| 20260906041026 | 62 | 212 | 0.0 | 1.7 | 0.00 | 0.02 | 0.00 | 94 | 1014.4 |
| 20260906040530 | 62 | 0 | 0.0 | 0.0 | 0.00 | 0.02 | 0.00 | 95 | 1014.5 |
| 20260906040050 | 62 | 0 | 0.0 | 0.0 | 0.00 | 0.02 | 0.00 | 95 | 1014.5 |
| 20260906035530 | 62 | 0 | 0.0 | 0.0 | 0.00 | 0.02 | 0.02 | 95 | 1014.4 |
| 20260906035029 | 62 | 0 | 0.0 | 0.0 | 0.00 | 0.02 | 0.02 | 95 | 1014.4 |
| 20260906034545 | 62 | 0 | 0.0 | 0.0 | 0.00 | 0.02 | 0.02 | 94 | 1014.2 |
| 20260906034029 | 62 | 0 | 0.0 | 0.0 | 0.00 | 0.02 | 0.02 | 94 | 1014.3 |
| 20260906033527 | 62 | 0 | 0.0 | 0.0 | 0.00 | 0.02 | 0.02 | 94 | 1014.3 |
| 20260906033053 | 62 | 0 | 0.0 | 0.0 | 0.01 | 0.02 | 0.02 | 94 | 1014.4 |
| 20260906032530 | 62 | 0 | 0.0 | 0.9 | 0.01 | 0.02 | 0.02 | 94 | 1014.0 |
| 20260906032030 | 62 | 0 | 0.0 | 0.9 | 0.01 | 0.02 | 0.02 | 93 | 1013.9 |
| 20260906031559 | 62 | 0 | 0.0 | 0.9 | 0.01 | 0.02 | 0.02 | 93 | 1014.0 |
| 20260906031029 | 62 | 0 | 0.0 | 0.9 | 0.01 | 0.02 | 0.02 | 93 | 1014.1 |
| 20260906030529 | 62 | 0 | 0.0 | 0.0 | 0.01 | 0.02 | 0.02 | 93 | 1014.0 |
| 20260906030048 | 63 | 0 | 0.0 | 0.9 | 0.01 | 0.02 | 0.02 | 93 | 1013.7 |
| 20260906025529 | 63 | 0 | 0.0 | 0.9 | 0.01 | 0.02 | 0.02 | 93 | 1013.8 |
| 20260906025032 | 63 | 206 | 0.0 | 0.9 | 0.01 | 0.02 | 0.02 | 92 | 1013.6 |
| 20260906024557 | 64 | 0 | 0.0 | 0.0 | 0.01 | 0.02 | 0.02 | 91 | 1013.6 |
| 20260906024030 | 64 | 0 | 0.0 | 2.6 | 0.01 | 0.02 | 0.02 | 91 | 1013.6 |
| 20260906023529 | 64 | 0 | 0.0 | 2.6 | 0.01 | 0.02 | 0.02 | 90 | 1013.6 |
| 20260906023044 | 65 | 158 | 0.9 | 2.6 | 0.00 | 0.01 | 0.01 | 89 | 1013.7 |
| 20260906022529 | 65 | 0 | 0.0 | 0.0 | 0.00 | 0.01 | 0.01 | 90 | 1013.7 |
| 20260906022030 | 65 | 0 | 0.0 | 0.9 | 0.00 | 0.01 | 0.01 | 91 | 1013.6 |
| 20260906021551 | 65 | 0 | 0.0 | 0.9 | 0.00 | 0.01 | 0.01 | 91 | 1013.5 |
| 20260906021030 | 65 | 0 | 0.0 | 0.9 | 0.00 | 0.01 | 0.01 | 92 | 1013.5 |
| 20260906020529 | 65 | 0 | 0.0 | 0.9 | 0.00 | 0.01 | 0.01 | 92 | 1013.5 |
| 20260906020056 | 65 | 0 | 0.0 | 0.9 | 0.00 | 0.01 | 0.01 | 91 | 1013.5 |
| 20260906015528 | 65 | 0 | 0.0 | 0.9 | 0.00 | 0.01 | 0.01 | 91 | 1013.3 |
| 20260906015030 | 65 | 278 | 0.0 | 0.9 | 0.00 | 0.01 | 0.01 | 92 | 1013.3 |
| 20260906014554 | 65 | 0 | 0.0 | 0.0 | 0.00 | 0.01 | 0.01 | 92 | 1013.3 |
| 20260906014028 | 65 | 0 | 0.0 | 1.7 | 0.00 | 0.01 | 0.01 | 92 | 1013.2 |
| 20260906013529 | 65 | 0 | 0.0 | 1.7 | 0.00 | 0.01 | 0.01 | 91 | 1013.4 |
| 20260906013054 | 65 | 0 | 0.0 | 0.9 | 0.00 | 0.01 | 0.01 | 92 | 1013.4 |
| 20260906012531 | 65 | 0 | 0.0 | 0.9 | 0.00 | 0.01 | 0.01 | 92 | 1013.3 |
| 20260906012028 | 65 | 0 | 0.0 | 0.9 | 0.00 | 0.01 | 0.01 | 92 | 1013.3 |
| 20260906011543 | 65 | 0 | 0.0 | 0.9 | 0.00 | 0.01 | 0.01 | 92 | 1013.2 |
| 20260906011029 | 65 | 0 | 0.0 | 0.9 | 0.00 | 0.01 | 0.01 | 92 | 1013.2 |
| 20260906010528 | 65 | 0 | 0.0 | 0.0 | 0.00 | 0.01 | 0.01 | 93 | 1013.2 |
| 20260906010055 | 64 | 0 | 0.0 | 0.0 | 0.00 | 0.01 | 0.01 | 92 | 1013.1 |
| 20260906005529 | 64 | 0 | 0.0 | 0.0 | 0.00 | 0.01 | 0.01 | 92 | 1013.1 |
| 20260906005029 | 65 | 0 | 0.0 | 0.0 | 0.00 | 0.01 | 0.01 | 92 | 1013.0 |
| 20260906004550 | 65 | 0 | 0.0 | 0.0 | 0.00 | 0.01 | 0.01 | 92 | 1012.9 |
| 20260906004029 | 65 | 0 | 0.0 | 0.0 | 0.00 | 0.01 | 0.01 | 91 | 1012.9 |
| 20260906003530 | 65 | 0 | 0.0 | 0.0 | 0.00 | 0.01 | 0.01 | 91 | 1012.8 |
| 20260906003042 | 65 | 0 | 0.0 | 0.0 | 0.00 | 0.01 | 0.01 | 91 | 1012.8 |
| 20260906002529 | 65 | 0 | 0.0 | 0.0 | 0.00 | 0.01 | 0.01 | 91 | 1012.5 |
| 20260906002028 | 65 | 0 | 0.0 | 0.0 | 0.00 | 0.01 | 0.01 | 91 | 1012.7 |
| 20260906001552 | 65 | 0 | 0.0 | 0.0 | 0.00 | 0.01 | 0.01 | 91 | 1012.6 |
| 20260906001029 | 65 | 0 | 0.0 | 0.0 | 0.00 | 0.01 | 0.01 | 90 | 1012.5 |
| 20260906000529 | 65 | 0 | 0.0 | 0.9 | 0.00 | 0.01 | 0.01 | 90 | 1012.4 |
| 20260906000053 | 65 | 0 | 0.0 | 0.9 | 0.00 | 0.01 | 0.01 | 89 | 1012.2 |
| 20260905235527 | 66 | 0 | 0.0 | 0.9 | 0.00 | 0.01 | 0.01 | 88 | 1012.4 |
| 20260905235030 | 66 | 0 | 0.0 | 0.9 | 0.00 | 0.01 | 0.01 | 88 | 1012.2 |
| 20260905234547 | 66 | 0 | 0.0 | 0.9 | 0.00 | 0.01 | 0.01 | 87 | 1012.1 |
| 20260905234029 | 66 | 0 | 0.0 | 0.0 | 0.00 | 0.01 | 0.01 | 87 | 1012.0 |
| 20260905233529 | 66 | 0 | 0.0 | 0.0 | 0.00 | 0.01 | 0.01 | 86 | 1011.9 |
| 20260905233047 | 67 | 0 | 0.0 | 0.0 | 0.00 | 0.01 | 0.01 | 85 | 1011.9 |
| 20260905232528 | 67 | 0 | 0.0 | 0.0 | 0.00 | 0.01 | 0.01 | 85 | 1011.8 |
| 20260905232030 | 67 | 0 | 0.0 | 0.0 | 0.00 | 0.01 | 0.01 | 85 | 1011.8 |
| 20260905231546 | 68 | 0 | 0.0 | 0.0 | 0.00 | 0.01 | 0.01 | 85 | 1011.8 |
| 20260905231028 | 68 | 0 | 0.0 | 0.0 | 0.00 | 0.01 | 0.01 | 85 | 1011.8 |
| 20260905230527 | 69 | 0 | 0.0 | 0.9 | 0.00 | 0.01 | 0.01 | 84 | 1011.8 |
| 20260905230055 | 69 | 0 | 0.0 | 0.9 | 0.00 | 0.01 | 0.01 | 84 | 1011.8 |
| 20260905225527 | 69 | 0 | 0.0 | 0.9 | 0.00 | 0.01 | 0.01 | 82 | 1011.7 |
| 20260905225027 | 69 | 0 | 0.0 | 0.0 | 0.00 | 0.01 | 0.01 | 85 | 1011.8 |
| 20260905224601 | 69 | 0 | 0.0 | 0.0 | 0.00 | 0.01 | 0.01 | 85 | 1011.7 |
| 20260905224028 | 70 | 0 | 0.0 | 0.0 | 0.00 | 0.01 | 0.01 | 84 | 1011.8 |
| 20260905223531 | 70 | 0 | 0.0 | 0.0 | 0.00 | 0.01 | 0.01 | 83 | 1011.7 |
| 20260905223047 | 70 | 0 | 0.0 | 0.0 | 0.00 | 0.01 | 0.01 | 82 | 1011.8 |
| 20260905222529 | 70 | 0 | 0.0 | 0.9 | 0.00 | 0.01 | 0.01 | 82 | 1011.6 |
| 20260905222027 | 71 | 0 | 0.0 | 0.9 | 0.00 | 0.01 | 0.01 | 81 | 1011.4 |
| 20260905221601 | 72 | 0 | 0.0 | 1.7 | 0.00 | 0.01 | 0.01 | 80 | 1011.3 |
| 20260905221033 | 72 | 5 | 0.9 | 1.7 | 0.00 | 0.01 | 0.01 | 75 | 1011.4 |
| 20260905220529 | 72 | 342 | 0.0 | 0.9 | 0.00 | 0.01 | 0.01 | 75 | 1011.3 |
| 20260905220104 | 73 | 325 | 0.0 | 0.9 | 0.00 | 0.01 | 0.01 | 75 | 1011.2 |
| 20260905215529 | 73 | 0 | 0.0 | 0.9 | 0.00 | 0.01 | 0.01 | 74 | 1011.2 |
| 20260905215028 | 73 | 0 | 0.0 | 2.6 | 0.00 | 0.01 | 0.01 | 73 | 1011.2 |
| 20260905214547 | 73 | 346 | 0.9 | 3.5 | 0.00 | 0.01 | 0.01 | 71 | 1011.1 |
| 20260905214030 | 74 | 289 | 0.9 | 3.5 | 0.00 | 0.01 | 0.01 | 72 | 1011.2 |
| 20260905213531 | 74 | 272 | 0.0 | 2.6 | 0.00 | 0.01 | 0.01 | 73 | 1011.0 |
| 20260905213041 | 72 | 0 | 0.0 | 0.9 | 0.00 | 0.01 | 0.01 | 79 | 1011.2 |
| 20260905212532 | 72 | 299 | 0.0 | 0.9 | 0.00 | 0.01 | 0.01 | 78 | 1011.1 |
| 20260905212030 | 72 | 0 | 0.0 | 1.7 | 0.00 | 0.01 | 0.01 | 76 | 1011.1 |
| 20260905211612 | 73 | 312 | 0.0 | 2.6 | 0.00 | 0.01 | 0.01 | 75 | 1010.9 |
| 20260905211029 | 74 | 292 | 0.0 | 2.6 | 0.00 | 0.01 | 0.01 | 74 | 1010.8 |
| 20260905210529 | 74 | 329 | 0.9 | 2.6 | 0.00 | 0.01 | 0.01 | 71 | 1010.7 |
| 20260905210054 | 75 | 0 | 0.0 | 4.3 | 0.00 | 0.01 | 0.01 | 72 | 1010.7 |
| 20260905205527 | 75 | 0 | 0.9 | 4.3 | 0.00 | 0.01 | 0.01 | 69 | 1010.8 |
| 20260905205029 | 75 | 273 | 0.9 | 3.5 | 0.00 | 0.01 | 0.01 | 68 | 1010.7 |
| 20260905204557 | 75 | 295 | 0.9 | 5.2 | 0.00 | 0.01 | 0.01 | 67 | 1010.8 |
| 20260905204029 | 76 | 104 | 2.6 | 5.2 | 0.00 | 0.01 | 0.01 | 67 | 1010.8 |
| 20260905203529 | 77 | 285 | 1.7 | 6.1 | 0.00 | 0.01 | 0.01 | 66 | 1010.7 |
| 20260905203110 | 77 | 354 | 1.7 | 6.1 | 0.00 | 0.01 | 0.01 | 64 | 1010.6 |
| 20260905202531 | 77 | 313 | 1.7 | 5.2 | 0.00 | 0.01 | 0.01 | 64 | 1010.5 |
| 20260905202029 | 77 | 333 | 1.7 | 3.5 | 0.00 | 0.01 | 0.01 | 67 | 1010.7 |
| 20260905201546 | 77 | 274 | 0.9 | 3.5 | 0.00 | 0.01 | 0.01 | 65 | 1010.6 |
| 20260905201029 | 76 | 205 | 0.0 | 1.7 | 0.00 | 0.01 | 0.01 | 68 | 1010.5 |
| 20260905200531 | 74 | 243 | 0.0 | 1.7 | 0.00 | 0.01 | 0.01 | 71 | 1010.5 |
| 20260905200053 | 74 | 0 | 0.0 | 0.9 | 0.00 | 0.01 | 0.01 | 74 | 1010.5 |
| 20260905195530 | 74 | 23 | 0.0 | 0.9 | 0.00 | 0.01 | 0.01 | 73 | 1010.5 |
| 20260905195031 | 75 | 0 | 0.0 | 5.2 | 0.00 | 0.01 | 0.01 | 74 | 1010.5 |
| 20260905194549 | 75 | 0 | 0.0 | 5.2 | 0.00 | 0.01 | 0.01 | 68 | 1010.5 |
| 20260905194029 | 75 | 47 | 1.7 | 5.2 | 0.00 | 0.01 | 0.01 | 67 | 1010.6 |
| 20260905193529 | 75 | 299 | 1.7 | 5.2 | 0.00 | 0.01 | 0.01 | 67 | 1010.7 |
| 20260905193044 | 74 | 134 | 0.9 | 5.2 | 0.00 | 0.01 | 0.01 | 68 | 1010.5 |
| 20260905192528 | 74 | 102 | 2.6 | 5.2 | 0.00 | 0.01 | 0.01 | 68 | 1010.6 |
| 20260905192028 | 74 | 280 | 1.7 | 4.3 | 0.00 | 0.01 | 0.01 | 70 | 1010.4 |
| 20260905191545 | 74 | 334 | 1.7 | 4.3 | 0.00 | 0.01 | 0.01 | 68 | 1010.3 |
| 20260905191029 | 74 | 349 | 0.9 | 4.3 | 0.00 | 0.01 | 0.01 | 70 | 1010.6 |
| 20260905190529 | 74 | 322 | 0.9 | 5.2 | 0.00 | 0.01 | 0.01 | 70 | 1010.5 |
| 20260905190049 | 74 | 333 | 0.9 | 5.2 | 0.00 | 0.01 | 0.01 | 69 | 1010.6 |
| 20260905185528 | 74 | 299 | 0.9 | 5.2 | 0.00 | 0.01 | 0.01 | 69 | 1010.5 |
| 20260905185028 | 74 | 295 | 1.7 | 4.3 | 0.00 | 0.01 | 0.01 | 67 | 1010.4 |
| 20260905184550 | 74 | 308 | 1.7 | 4.3 | 0.00 | 0.01 | 0.01 | 65 | 1010.4 |
| 20260905184029 | 74 | 49 | 1.7 | 4.3 | 0.00 | 0.01 | 0.01 | 67 | 1010.6 |